VOMM

Chennai International Airport

Airport
ICAO code
VOMM
Summary
ICAO Region
APAC
ICAO Territory
Location

Chennai, Tamil Nadu,

Coordinates
12° 58' 54" N , 80° 9' 43" E
KCC
Metar
VOMM 191230Z 16010KT 6000 FEW020 32/27 Q1003 NOSIG

Description

Chennai International Airport is an international airport located 15 km southwest of Chennai, the capital city of the Indian state of Tamil Nadu.

Climatology

Tropical Savanna climate (Köppen climate classification Aw) - monthly mean temperatures above 18°C, and a pronounced dry season. A Tropical Savanna climate has more pronounced dry seasons than a Tropical Monsoon climate.

Airport map

Aerial View

SKYbrary Partners:

Safety knowledge contributed by: